Flag for France Weather past 2 weeks in Strasbourg, France

Now
54 °F

Partly sunny.


Feels Like: 54 °F
Forecast: 54 / 70 °F
Wind: No wind

Location: Strasbourg Airport

Current Time: Sep 2, 2014 at 8:47:32 AM

Latest Report: Sep 2, 2014 at 8:00 AM


Visibility: N/A

Pressure: 30.15 "Hg

Humidity: 94%

Dew point: 52 °F

Location of StrasbourgLocation

Historic Weather in Strasbourg — Graph

°F

Strasbourg temperature yesterday

Maximum temperature yesterday: 66 °F (at 3:00 PM)
Minimum temperature yesterday: 54 °F (at 12:00 AM)
Average temperature yesterday: 60 °F

Past Weeks' High & Low Weather Summary

 TemperatureHumidityPressure
High77 °F (Aug 28, 4:30 PM)100% (Aug 20, 7:00 AM)30.18 "Hg (Aug 20, 7:00 AM)
Low46 °F (Aug 20, 5:30 AM)33% (Aug 22, 2:00 PM)29.68 "Hg (Aug 26, 4:30 AM)
Average61 °F79%30.01 "Hg
* Reported Aug 18 7:00 AM — Sep 2 7:30 AM, Strasbourg, Weather by CustomWeather, © 2014

Note: Actual official high and low records may vary slightly from our data, if they occured in-between our weather recording intervals... More about our weather records

Advertising

Strasbourg weather history for previous 24 hours

 ConditionsComfort  
Time TempWeatherWind HumidityBarometerVisibility
7:30 AM
Sep 2
54 °FClear.2 mph94%30.15 "HgN/A
7:00 AM54 °FClear.1 mph94%30.15 "HgN/A
6:30 AM54 °FClear.No wind94%30.12 "HgN/A
6:00 AM54 °FOvercast.1 mph94%30.15 "HgN/A
5:30 AM54 °FOvercast.1 mph94%30.15 "HgN/A
5:00 AM54 °FClear.No wind94%30.15 "HgN/A
4:30 AM55 °FClear.1 mph94%30.15 "HgN/A
4:00 AM55 °FClear.2 mph94%30.12 "HgN/A
3:30 AM57 °FClear.No wind88%30.15 "HgN/A
3:00 AM57 °FClear.No wind88%30.15 "HgN/A
2:30 AM57 °FClear.2 mph94%30.15 "HgN/A
2:00 AM57 °FClear.No wind94%30.15 "HgN/A
1:30 AM57 °FClear.2 mph94%30.15 "HgN/A
1:00 AM57 °FClear.No wind94%30.15 "HgN/A
12:30 AM59 °FClear.3 mph88%30.15 "HgN/A
12:00 AM59 °FClear.3 mph88%30.15 "HgN/A
11:30 PM
Sep 1
59 °FClear.2 mph88%30.15 "HgN/A
10:30 PM59 °FClear.No wind88%30.15 "HgN/A
10:00 PM61 °FClear.No wind83%30.15 "HgN/A
9:30 PM61 °FClear.No wind83%30.15 "HgN/A
9:00 PM61 °FClear.1 mph83%30.15 "HgN/A
8:30 PM63 °FClear.2 mph73%30.15 "HgN/A
8:00 PM63 °FClear.3 mph77%30.15 "HgN/A
7:30 PM63 °FClear.3 mph73%30.15 "HgN/A
7:00 PM64 °FClear.2 mph64%30.15 "HgN/A
6:30 PM64 °FClear.3 mph64%30.15 "HgN/A
6:00 PM66 °FClear.2 mph60%30.15 "HgN/A
5:30 PM64 °FClear.2 mph64%30.15 "HgN/A
5:00 PM64 °FClear.3 mph60%30.15 "HgN/A
4:30 PM64 °FOvercast.2 mph64%30.15 "HgN/A
4:00 PM64 °FOvercast.5 mph64%30.15 "HgN/A
3:30 PM66 °FOvercast.3 mph60%30.15 "HgN/A
3:00 PM66 °FPartly sunny.3 mph56%30.15 "HgN/A
2:30 PM64 °FMostly cloudy.5 mph64%30.15 "HgN/A
2:00 PM64 °FPartly sunny.2 mph60%30.15 "HgN/A
1:30 PM63 °FMore clouds than sun.5 mph68%30.15 "HgN/A
1:00 PM63 °FPartly sunny.7 mph68%30.15 "HgN/A
12:30 PM63 °FOvercast.6 mph68%30.15 "HgN/A
12:00 PM63 °FPartly sunny.2 mph68%30.15 "HgN/A
11:30 AM63 °FOvercast.5 mph68%30.15 "HgN/A
11:00 AM61 °FMore clouds than sun.3 mph72%30.15 "HgN/A
10:30 AM61 °FPartly sunny.6 mph72%30.15 "HgN/A
10:00 AM61 °FScattered clouds.5 mph77%30.15 "HgN/A
9:30 AM57 °FCloudy.5 mph88%30.15 "HgN/A
9:00 AM57 °FPartly sunny.5 mph88%30.12 "HgN/A
8:30 AM55 °FMostly cloudy.7 mph94%30.12 "HgN/A
8:00 AM55 °FBroken clouds.8 mph94%30.12 "HgN/A
Weather by CustomWeather, © 2014

See weather overviewHow to use our weather pages